JLY7413 SBPA-SBGL

Flight info

Callsign JLY7413
Flight time 1h 23m
Altitude 37000
Route UBNUT UN857 AKNUB
Aircraft A320/M-SDE3FGHIRWY/LB1

Departure

Time 2026-05-06 00:34
Airport Porto Alegre-Salgado Filho International Airport (SBPA)

Arrival

Time 2026-05-06 01:57
Airport Rio Galeão – Tom Jobim International Airport (SBGL)
Time Latitude Longitude Altitude Speed Heading
2026-05-06 00:34 -29.95002 -51.05229 4033 ft 264 kts 46°
2026-05-06 00:34 -29.93739 -51.03622 4864 ft 270 kts 45°
2026-05-06 00:34 -29.92457 -51.02006 5686 ft 275 kts 45°
2026-05-06 00:34 -29.91164 -51.00389 6486 ft 281 kts 44°
2026-05-06 00:35 -29.89820 -50.98718 7271 ft 286 kts 44°
2026-05-06 00:35 -29.88457 -50.97030 8060 ft 290 kts 44°
2026-05-06 00:35 -29.87067 -50.95314 8849 ft 295 kts 44°
2026-05-06 00:35 -29.85657 -50.93574 9643 ft 299 kts 44°
2026-05-06 00:36 -29.84216 -50.91796 10238 ft 312 kts 44°
2026-05-06 00:36 -29.82675 -50.89901 10450 ft 336 kts 44°
2026-05-06 00:36 -29.81019 -50.87867 10618 ft 360 kts 44°
2026-05-06 00:36 -29.79246 -50.85689 10750 ft 382 kts 45°
2026-05-06 00:37 -29.77385 -50.83402 10991 ft 398 kts 45°
2026-05-06 00:37 -29.75480 -50.81052 11537 ft 404 kts 45°
2026-05-06 00:37 -29.73555 -50.78677 12139 ft 407 kts 45°
2026-05-06 00:37 -29.71612 -50.76284 12739 ft 411 kts 44°
2026-05-06 00:38 -29.69651 -50.73875 13337 ft 414 kts 44°
2026-05-06 00:38 -29.67673 -50.71449 13919 ft 417 kts 44°
2026-05-06 00:38 -29.65703 -50.69034 14433 ft 421 kts 44°
2026-05-06 00:38 -29.63668 -50.66541 14938 ft 424 kts 44°
2026-05-06 00:39 -29.61639 -50.64056 15432 ft 428 kts 44°
2026-05-06 00:39 -29.59589 -50.61550 15924 ft 432 kts 44°
2026-05-06 00:39 -29.57548 -50.59056 16406 ft 436 kts 44°
2026-05-06 00:39 -29.55462 -50.56507 16880 ft 440 kts 44°
2026-05-06 00:40 -29.53355 -50.53932 17357 ft 443 kts 44°
2026-05-06 00:40 -29.51237 -50.51348 17814 ft 446 kts 44°
2026-05-06 00:40 -29.49100 -50.48739 18284 ft 450 kts 44°
2026-05-06 00:40 -29.46945 -50.46110 18689 ft 453 kts 44°
2026-05-06 00:41 -29.44777 -50.43467 19055 ft 457 kts 44°
2026-05-06 00:41 -29.42575 -50.40786 19241 ft 465 kts 44°
2026-05-06 00:41 -29.40357 -50.38088 19711 ft 465 kts 44°
2026-05-06 00:41 -29.38136 -50.35383 20083 ft 468 kts 44°
2026-05-06 00:42 -29.35892 -50.32653 20441 ft 471 kts 44°
2026-05-06 00:42 -29.33633 -50.29911 20790 ft 474 kts 44°
2026-05-06 00:42 -29.31389 -50.27193 21126 ft 477 kts 44°
2026-05-06 00:42 -29.29098 -50.24424 21447 ft 480 kts 44°
2026-05-06 00:43 -29.26800 -50.21647 21759 ft 483 kts 44°
2026-05-06 00:43 -29.24485 -50.18845 22069 ft 485 kts 44°
2026-05-06 00:43 -29.22158 -50.16025 22369 ft 488 kts 44°
2026-05-06 00:43 -29.19817 -50.13189 22654 ft 491 kts 44°
2026-05-06 00:44 -29.17464 -50.10343 22947 ft 494 kts 44°
2026-05-06 00:44 -29.15090 -50.07480 23226 ft 496 kts 44°
2026-05-06 00:44 -29.12706 -50.04607 23501 ft 499 kts 44°
2026-05-06 00:44 -29.10311 -50.01722 23753 ft 501 kts 44°
2026-05-06 00:45 -29.07903 -49.98822 23987 ft 503 kts 44°
2026-05-06 00:45 -29.05490 -49.95918 24203 ft 505 kts 44°
2026-05-06 00:45 -29.03069 -49.93006 24389 ft 507 kts 44°
2026-05-06 00:45 -29.00636 -49.90080 24590 ft 508 kts 44°
2026-05-06 00:46 -28.98198 -49.87147 24791 ft 510 kts 44°
2026-05-06 00:46 -28.95753 -49.84207 24983 ft 511 kts 44°
2026-05-06 00:46 -28.93296 -49.81253 25170 ft 513 kts 44°
2026-05-06 00:46 -28.90831 -49.78300 25342 ft 514 kts 44°
2026-05-06 00:47 -28.88397 -49.75391 25585 ft 514 kts 44°
2026-05-06 00:47 -28.85930 -49.72446 25838 ft 513 kts 44°
2026-05-06 00:47 -28.83454 -49.69493 26077 ft 513 kts 44°
2026-05-06 00:47 -28.80985 -49.66545 26327 ft 513 kts 44°
2026-05-06 00:48 -28.78516 -49.63593 26588 ft 513 kts 44°
2026-05-06 00:48 -28.76054 -49.60648 26838 ft 513 kts 44°
2026-05-06 00:48 -28.73592 -49.57713 27104 ft 513 kts 44°
2026-05-06 00:48 -28.71124 -49.54777 27375 ft 512 kts 44°
2026-05-06 00:49 -28.68660 -49.51841 27636 ft 512 kts 44°
2026-05-06 00:49 -28.66197 -49.48906 27913 ft 512 kts 44°
2026-05-06 00:49 -28.63731 -49.45972 28198 ft 512 kts 44°
2026-05-06 00:49 -28.61267 -49.43046 28492 ft 512 kts 44°
2026-05-06 00:50 -28.58830 -49.40159 28782 ft 512 kts 44°
2026-05-06 00:50 -28.56360 -49.37230 29080 ft 512 kts 44°
2026-05-06 00:50 -28.53894 -49.34305 29357 ft 511 kts 44°
2026-05-06 00:50 -28.51430 -49.31383 29655 ft 511 kts 43°
2026-05-06 00:51 -28.48966 -49.28466 29956 ft 511 kts 43°
2026-05-06 00:51 -28.46499 -49.25548 30238 ft 511 kts 43°
2026-05-06 00:51 -28.44031 -49.22634 30469 ft 512 kts 43°
2026-05-06 00:51 -28.41561 -49.19721 30712 ft 512 kts 43°
2026-05-06 00:52 -28.39096 -49.16812 30972 ft 511 kts 43°
2026-05-06 00:52 -28.36616 -49.13891 31213 ft 512 kts 43°
2026-05-06 00:52 -28.34177 -49.11017 31463 ft 512 kts 43°
2026-05-06 00:52 -28.31707 -49.08104 31695 ft 511 kts 43°
2026-05-06 00:53 -28.29240 -49.05195 31942 ft 511 kts 43°
2026-05-06 00:53 -28.26777 -49.02280 32190 ft 512 kts 44°
2026-05-06 00:53 -28.24352 -48.99323 32444 ft 512 kts 45°
2026-05-06 00:53 -28.21958 -48.96322 32692 ft 512 kts 46°
2026-05-06 00:54 -28.19584 -48.93295 32946 ft 513 kts 46°
2026-05-06 00:54 -28.17222 -48.90272 33182 ft 513 kts 46°
2026-05-06 00:54 -28.14850 -48.87248 33440 ft 513 kts 46°
2026-05-06 00:54 -28.12468 -48.84237 33678 ft 512 kts 45°
2026-05-06 00:55 -28.10073 -48.81237 33916 ft 513 kts 45°
2026-05-06 00:55 -28.07675 -48.78251 34149 ft 513 kts 45°
2026-05-06 00:55 -28.05273 -48.75265 34349 ft 513 kts 45°
2026-05-06 00:55 -28.02893 -48.72308 34565 ft 513 kts 45°
2026-05-06 00:56 -28.00489 -48.69321 34793 ft 513 kts 45°
2026-05-06 00:56 -27.98089 -48.66335 35020 ft 512 kts 45°
2026-05-06 00:56 -27.95693 -48.63352 35250 ft 512 kts 45°
2026-05-06 00:56 -27.93301 -48.60374 35460 ft 511 kts 45°
2026-05-06 00:57 -27.90913 -48.57404 35628 ft 511 kts 46°
2026-05-06 00:57 -27.88515 -48.54426 35795 ft 512 kts 46°
2026-05-06 00:57 -27.86112 -48.51449 35968 ft 512 kts 46°
2026-05-06 00:57 -27.83709 -48.48473 36150 ft 512 kts 46°
2026-05-06 00:58 -27.81312 -48.45496 36320 ft 512 kts 46°
2026-05-06 00:58 -27.78944 -48.42553 36506 ft 512 kts 46°
2026-05-06 00:58 -27.76556 -48.39582 36667 ft 512 kts 46°
2026-05-06 00:58 -27.74160 -48.36607 36830 ft 512 kts 46°
2026-05-06 00:59 -27.71763 -48.33641 36999 ft 511 kts 46°
2026-05-06 00:59 -27.69358 -48.30675 37114 ft 512 kts 46°
2026-05-06 00:59 -27.66949 -48.27705 37148 ft 515 kts 46°
2026-05-06 01:00 -27.62884 -48.22694 37138 ft 517 kts 46°
2026-05-06 01:00 -27.58025 -48.16711 37139 ft 517 kts 46°
2026-05-06 01:01 -27.53195 -48.10765 37152 ft 517 kts 46°
2026-05-06 01:01 -27.48329 -48.04783 37151 ft 518 kts 46°
2026-05-06 01:02 -27.43453 -47.98801 37156 ft 519 kts 46°
2026-05-06 01:02 -27.38566 -47.92813 37163 ft 519 kts 46°
2026-05-06 01:03 -27.33659 -47.86846 37169 ft 519 kts 46°
2026-05-06 01:03 -27.28731 -47.80900 37169 ft 519 kts 46°
2026-05-06 01:04 -27.23811 -47.74953 37169 ft 519 kts 46°
2026-05-06 01:04 -27.18892 -47.69005 37168 ft 519 kts 46°
2026-05-06 01:05 -27.14000 -47.63102 37170 ft 519 kts 46°
2026-05-06 01:05 -27.09078 -47.57170 37154 ft 519 kts 46°
2026-05-06 01:06 -27.04160 -47.51247 37162 ft 518 kts 46°
2026-05-06 01:06 -26.99244 -47.45338 37163 ft 518 kts 46°
2026-05-06 01:07 -26.94321 -47.39435 37160 ft 518 kts 46°
2026-05-06 01:07 -26.89424 -47.33568 37164 ft 517 kts 46°
2026-05-06 01:08 -26.84499 -47.27678 37161 ft 517 kts 46°
2026-05-06 01:08 -26.79575 -47.21803 37160 ft 517 kts 46°
2026-05-06 01:09 -26.74658 -47.15930 37163 ft 517 kts 46°
2026-05-06 01:09 -26.69764 -47.10114 37154 ft 516 kts 46°
2026-05-06 01:10 -26.64831 -47.04275 37164 ft 516 kts 46°
2026-05-06 01:10 -26.59900 -46.98441 37161 ft 516 kts 46°
2026-05-06 01:11 -26.54957 -46.92600 37167 ft 516 kts 46°
2026-05-06 01:11 -26.50010 -46.86785 37173 ft 516 kts 46°
2026-05-06 01:12 -26.45060 -46.80993 37177 ft 515 kts 46°
2026-05-06 01:12 -26.40113 -46.75198 37177 ft 515 kts 46°
2026-05-06 01:13 -26.35202 -46.69433 37174 ft 515 kts 46°
2026-05-06 01:13 -26.30255 -46.63645 37161 ft 515 kts 46°
2026-05-06 01:14 -26.22818 -46.54988 37162 ft 515 kts 46°
2026-05-06 01:14 -26.17895 -46.49247 37171 ft 515 kts 46°
2026-05-06 01:15 -26.12944 -46.43478 37176 ft 515 kts 46°
2026-05-06 01:15 -26.07991 -46.37721 37176 ft 514 kts 46°
2026-05-06 01:16 -26.03037 -46.31978 37179 ft 514 kts 46°
2026-05-06 01:16 -25.98116 -46.26275 37179 ft 514 kts 46°
2026-05-06 01:17 -25.93158 -46.20533 37183 ft 514 kts 46°
2026-05-06 01:17 -25.88193 -46.14794 37188 ft 514 kts 46°
2026-05-06 01:18 -25.83236 -46.09070 37187 ft 514 kts 46°
2026-05-06 01:18 -25.78280 -46.03364 37187 ft 514 kts 46°
2026-05-06 01:19 -25.73318 -45.97653 37186 ft 513 kts 46°
2026-05-06 01:19 -25.68364 -45.91949 37192 ft 513 kts 46°
2026-05-06 01:20 -25.63449 -45.86300 37186 ft 512 kts 46°
2026-05-06 01:20 -25.58507 -45.80624 37185 ft 512 kts 46°
2026-05-06 01:21 -25.53551 -45.74951 37183 ft 512 kts 46°
2026-05-06 01:21 -25.48602 -45.69287 37172 ft 512 kts 46°
2026-05-06 01:22 -25.43645 -45.63631 37177 ft 512 kts 46°
2026-05-06 01:22 -25.38674 -45.57970 37184 ft 512 kts 46°
2026-05-06 01:23 -25.33713 -45.52311 37193 ft 512 kts 46°
2026-05-06 01:23 -25.28747 -45.46661 37195 ft 512 kts 46°
2026-05-06 01:24 -25.23780 -45.41017 37194 ft 512 kts 46°
2026-05-06 01:24 -25.18850 -45.35411 37200 ft 511 kts 46°
2026-05-06 01:25 -25.13885 -45.29785 37195 ft 511 kts 46°
2026-05-06 01:25 -25.08934 -45.24174 37187 ft 510 kts 46°
2026-05-06 01:26 -25.03965 -45.18563 37188 ft 510 kts 46°
2026-05-06 01:26 -24.99003 -45.12960 37194 ft 510 kts 46°
2026-05-06 01:27 -24.94053 -45.07363 37196 ft 510 kts 46°
2026-05-06 01:27 -24.89080 -45.01759 37196 ft 510 kts 46°
2026-05-06 01:28 -24.84152 -44.96212 37196 ft 510 kts 46°
2026-05-06 01:28 -24.79189 -44.90622 37188 ft 510 kts 46°
2026-05-06 01:29 -24.74216 -44.85047 37193 ft 510 kts 46°
2026-05-06 01:29 -24.69239 -44.79470 37212 ft 510 kts 46°
2026-05-06 01:30 -24.64270 -44.73906 37198 ft 509 kts 46°
2026-05-06 01:30 -24.59299 -44.68356 37204 ft 509 kts 46°
2026-05-06 01:31 -24.54328 -44.62798 37202 ft 509 kts 46°
2026-05-06 01:31 -24.49175 -44.57552 37205 ft 508 kts 35°
2026-05-06 01:32 -24.43065 -44.53726 37206 ft 506 kts 25°
2026-05-06 01:32 -24.36786 -44.50229 37204 ft 505 kts 25°
2026-05-06 01:33 -24.30514 -44.46732 37192 ft 505 kts 26°
2026-05-06 01:33 -24.24248 -44.43219 37196 ft 505 kts 26°
2026-05-06 01:34 -24.18028 -44.39749 37207 ft 504 kts 25°
2026-05-06 01:34 -24.11770 -44.36265 37204 ft 503 kts 26°
2026-05-06 01:35 -24.05540 -44.32787 37210 ft 502 kts 26°
2026-05-06 01:35 -23.99314 -44.29322 37212 ft 502 kts 25°
2026-05-06 01:36 -23.93298 -44.25458 37192 ft 502 kts 38°
2026-05-06 01:36 -23.88479 -44.19987 37207 ft 500 kts 57°
2026-05-06 01:37 -23.85132 -44.13391 36834 ft 494 kts 62°
2026-05-06 01:37 -23.83201 -44.10272 35402 ft 499 kts 50°
2026-05-06 01:37 -23.80711 -44.07617 33891 ft 503 kts 37°
2026-05-06 01:38 -23.77783 -44.05510 32207 ft 505 kts 26°
2026-05-06 01:38 -23.74566 -44.04001 30554 ft 503 kts 16°
2026-05-06 01:38 -23.71180 -44.03129 28626 ft 499 kts
2026-05-06 01:38 -23.67727 -44.02823 26539 ft 498 kts
2026-05-06 01:39 -23.64268 -44.02600 24458 ft 498 kts
2026-05-06 01:39 -23.60816 -44.02387 22714 ft 493 kts
2026-05-06 01:39 -23.57439 -44.02180 21723 ft 479 kts
2026-05-06 01:39 -23.54116 -44.01971 21456 ft 477 kts
2026-05-06 01:40 -23.50816 -44.01760 21215 ft 474 kts
2026-05-06 01:40 -23.47580 -44.01551 20974 ft 470 kts
2026-05-06 01:40 -23.44315 -44.01343 20615 ft 467 kts
2026-05-06 01:40 -23.41087 -44.01139 20138 ft 462 kts
2026-05-06 01:41 -23.37885 -44.00935 19671 ft 457 kts
2026-05-06 01:41 -23.34729 -44.00737 19215 ft 452 kts
2026-05-06 01:41 -23.31611 -44.00544 18756 ft 446 kts
2026-05-06 01:41 -23.28525 -44.00349 18281 ft 442 kts
2026-05-06 01:42 -23.25465 -44.00156 17819 ft 439 kts
2026-05-06 01:42 -23.22439 -43.99967 17416 ft 430 kts
2026-05-06 01:42 -23.19511 -43.99786 17280 ft 412 kts
2026-05-06 01:42 -23.16702 -43.99611 17152 ft 396 kts
2026-05-06 01:43 -23.14036 -43.99443 17033 ft 381 kts
2026-05-06 01:43 -23.11435 -43.99278 16910 ft 368 kts
2026-05-06 01:43 -23.08927 -43.99118 16785 ft 355 kts
2026-05-06 01:43 -23.06504 -43.98965 16664 ft 343 kts
2026-05-06 01:44 -23.04159 -43.98818 16487 ft 331 kts
2026-05-06 01:44 -23.01882 -43.98675 15889 ft 325 kts
2026-05-06 01:44 -22.99626 -43.98530 15232 ft 323 kts
2026-05-06 01:44 -22.97391 -43.98361 14582 ft 320 kts
2026-05-06 01:45 -22.95254 -43.97749 13950 ft 316 kts 24°
2026-05-06 01:45 -22.93345 -43.96599 13248 ft 312 kts 38°
2026-05-06 01:45 -22.91789 -43.95004 12744 ft 305 kts 52°
2026-05-06 01:45 -22.90630 -43.93086 12427 ft 303 kts 64°
2026-05-06 01:46 -22.89711 -43.91032 12120 ft 301 kts 65°
2026-05-06 01:46 -22.88805 -43.88999 11810 ft 299 kts 65°
2026-05-06 01:46 -22.87904 -43.86977 11503 ft 297 kts 65°
2026-05-06 01:46 -22.87008 -43.84970 11201 ft 295 kts 65°
2026-05-06 01:47 -22.86115 -43.82970 10900 ft 293 kts 65°
2026-05-06 01:47 -22.85237 -43.81006 10598 ft 292 kts 65°
2026-05-06 01:47 -22.84640 -43.79669 10401 ft 291 kts 65°
2026-05-06 01:47 -22.83759 -43.77699 10105 ft 290 kts 65°
2026-05-06 01:48 -22.82881 -43.75740 9789 ft 288 kts 65°
2026-05-06 01:48 -22.82004 -43.73785 9488 ft 287 kts 65°
2026-05-06 01:48 -22.81164 -43.71827 9194 ft 286 kts 70°
2026-05-06 01:48 -22.80629 -43.69760 8858 ft 284 kts 76°
2026-05-06 01:49 -22.80148 -43.67684 8519 ft 283 kts 76°
2026-05-06 01:49 -22.79669 -43.65621 8181 ft 282 kts 77°
2026-05-06 01:49 -22.79124 -43.63267 7793 ft 276 kts 77°
2026-05-06 01:49 -22.78666 -43.61303 7483 ft 261 kts 77°
2026-05-06 01:50 -22.78230 -43.59437 7080 ft 252 kts 77°
2026-05-06 01:50 -22.77810 -43.57632 6728 ft 242 kts 77°
2026-05-06 01:50 -22.77379 -43.55880 6424 ft 240 kts 71°
2026-05-06 01:50 -22.76735 -43.54211 6067 ft 241 kts 68°
2026-05-06 01:51 -22.76072 -43.52540 5709 ft 241 kts 68°
2026-05-06 01:51 -22.75407 -43.50865 5350 ft 242 kts 68°
2026-05-06 01:51 -22.74753 -43.49211 4988 ft 234 kts 68°
2026-05-06 01:51 -22.74122 -43.47614 4654 ft 228 kts 68°
2026-05-06 01:52 -22.73496 -43.46032 4333 ft 228 kts 68°
2026-05-06 01:52 -22.72872 -43.44456 4008 ft 227 kts 68°
2026-05-06 01:52 -22.72264 -43.42910 3689 ft 219 kts 69°
2026-05-06 01:52 -22.71997 -43.41337 3395 ft 210 kts 94°
2026-05-06 01:53 -22.72347 -43.39857 3112 ft 199 kts 117°
2026-05-06 01:53 -22.73096 -43.38661 2844 ft 186 kts 126°
2026-05-06 01:53 -22.73824 -43.37576 2558 ft 174 kts 125°
2026-05-06 01:53 -22.74506 -43.36551 2324 ft 162 kts 124°
2026-05-06 01:54 -22.75145 -43.35589 2098 ft 154 kts 124°
2026-05-06 01:54 -22.75762 -43.34660 1893 ft 150 kts 124°
2026-05-06 01:54 -22.76369 -43.33744 1696 ft 149 kts 124°
2026-05-06 01:54 -22.76972 -43.32833 1497 ft 148 kts 124°
2026-05-06 01:55 -22.77570 -43.31928 1309 ft 148 kts 124°
2026-05-06 01:55 -22.78165 -43.31027 1111 ft 147 kts 124°
2026-05-06 01:55 -22.78759 -43.30129 921 ft 146 kts 124°
2026-05-06 01:55 -22.79350 -43.29235 733 ft 146 kts 125°
2026-05-06 01:56 -22.79938 -43.28346 537 ft 145 kts 125°
2026-05-06 01:56 -22.80524 -43.27461 342 ft 144 kts 125°
2026-05-06 01:56 -22.81106 -43.26580 154 ft 143 kts 125°
2026-05-06 01:56 -22.81674 -43.25718 29 ft 130 kts 126°
2026-05-06 01:57 -22.82061 -43.25133 26 ft 53 kts 126°
2026-05-06 01:57 -22.82248 -43.24850 26 ft 38 kts 125°
2026-05-06 01:57 -22.82343 -43.24659 26 ft 23 kts 104°
2026-05-06 01:57 -22.82366 -43.24504 26 ft 12 kts 96°
2026-05-06 01:58 -22.82337 -43.24423 26 ft 13 kts 39°
2026-05-06 01:58 -22.82266 -43.24368 26 ft 12 kts 37°
2026-05-06 01:58 -22.82197 -43.24314 26 ft 12 kts 36°
2026-05-06 01:58 -22.82126 -43.24307 26 ft 10 kts 326°
2026-05-06 01:59 -22.82066 -43.24307 26 ft 8 kts 30°
2026-05-06 01:59 -22.82018 -43.24293 26 ft 7 kts 347°
2026-05-06 01:59 -22.81975 -43.24306 26 ft 6 kts 344°
2026-05-06 01:59 -22.81945 -43.24315 26 ft 2 kts 345°
2026-05-06 02:00 -22.81936 -43.24318 26 ft 0 kts 345°